Flag for U.S.A. Weather past 2 weeks in Evansville, Indiana, U.S.A.

Now
82 °F

Sunny.


Feels Like: 82 °F
Forecast: 60 / 83 °F
Wind: 7 mph from South

Location: Evansville Regional Airport

Current Time: Jul 31, 2014 at 2:55:32 PM

Latest Report: Jul 31, 2014 at 1:54 PM


Visibility: 10 mi

Pressure: 30.08 "Hg

Humidity: 44%

Dew point: 58 °F

Location of EvansvilleLocation

Historic Weather in Evansville — Graph

°F

Evansville temperature yesterday

Maximum temperature yesterday: 83 °F (at 2:54 PM)
Minimum temperature yesterday: 61 °F (at 4:54 AM)
Average temperature yesterday: 72 °F

Past Weeks' High & Low Weather Summary

 TemperatureHumidityPressure
High93 °F (Jul 26, 3:54 PM)97% (Jul 19, 4:54 AM)30.13 "Hg (Jul 19, 4:54 AM)
Low57 °F (Jul 17, 5:54 AM)32% (Jul 17, 1:54 PM)29.80 "Hg (Jul 27, 3:54 PM)
Average73 °F67%30.03 "Hg
* Reported Jul 16 12:54 PM — Jul 31 12:54 PM, Evansville, Weather by CustomWeather, © 2014

Note: Actual official high and low records may vary slightly from our data, if they occured in-between our weather recording intervals... More about our weather records

Advertising

Evansville weather history for previous 24 hours

 ConditionsComfort  
Time TempWeatherWind HumidityBarometerVisibility
12:54 PM
Jul 31
82 °FSunny.8 mph43%30.09 "Hg10 mi
11:54 AM80 °FPassing clouds.3 mph47%30.09 "Hg10 mi
10:54 AM78 °FSunny.3 mph54%30.10 "Hg10 mi
9:54 AM76 °FSunny.3 mph60%30.10 "Hg10 mi
8:54 AM72 °FSunny.No wind68%30.10 "Hg10 mi
7:54 AM68 °FSunny.3 mph78%30.10 "Hg9 mi
6:54 AM63 °FSunny.No wind87%30.08 "Hg9 mi
5:54 AM61 °FFog.No wind90%30.08 "Hg6 mi
4:54 AM61 °FClear.No wind90%30.07 "Hg8 mi
3:54 AM63 °FClear.No wind87%30.07 "Hg10 mi
2:54 AM64 °FClear.No wind87%30.07 "Hg10 mi
1:54 AM65 °FClear.No wind85%30.07 "Hg10 mi
12:54 AM67 °FClear.No wind79%30.07 "Hg10 mi
11:54 PM
Jul 30
69 °FClear.No wind73%30.07 "Hg10 mi
10:54 PM70 °FClear.3 mph71%30.06 "Hg10 mi
9:54 PM72 °FClear.No wind66%30.06 "Hg10 mi
8:54 PM73 °FClear.6 mph64%30.06 "Hg10 mi
7:54 PM76 °FSunny.6 mph58%30.05 "Hg10 mi
6:54 PM78 °FSunny.12 mph52%30.05 "Hg10 mi
5:54 PM81 °FSunny.7 mph44%30.04 "Hg10 mi
4:54 PM81 °FScattered clouds.7 mph41%30.05 "Hg10 mi
3:54 PM83 °FSunny.8 mph36%30.05 "Hg10 mi
2:54 PM83 °FSunny.7 mph36%30.06 "Hg10 mi
Weather by CustomWeather, © 2014

See weather overviewHow to use our weather pages